West Paducah, KY

12:13 AM CST on February 08, 2016 (GMT -0600)
Barkley Regional

Weather History for KPAH - December, 2013

Change the Weather History Date:

Wednesday, December 25, 2013

  Actual Average Record
Temperature  
Mean Temperature 32 °F 35 °F  
Max Temperature 45 °F 44 °F 69 °F (1982)
Min Temperature 18 °F 27 °F -8 °F (2004)
Degree Days  
Heating Degree Days 33 30  
Month to date heating degree days 675 674  
Since 1 July heating degree days 1477 1451  
Cooling Degree Days 0 0  
Month to date cooling degree days 0 0  
Year to date cooling degree days 1478 1542  
Moisture  
Dew Point 21 °F    
Average Humidity 63    
Maximum Humidity 85    
Minimum Humidity 41    
Precipitation  
Precipitation 0.00 in 0.14 in 3.78 in (1987)
Month to date precipitation 7.94 3.78  
Year to date precipitation 60.14 48.27  
Snow  
Snow 0.00 in 0.10 in 4.00 in (1969)
Month to date snowfall 5.2 1.7  
Since 1 July snowfall 5.2 1.8  
Snow Depth 0.00 in    
Sea Level Pressure  
Sea Level Pressure 30.36 in    
Wind  
Wind Speed 6 mph (SW)    
Max Wind Speed 16 mph    
Max Gust Speed 19 mph    
Visibility 10 miles    
Events      
T = Trace of Precipitation, MM = Missing Value Source: NWS Daily Summary

Daily Weather History Graph

Daily Weather History Graph

Search for Another Location

Airport or City:

Trip Planner

Search our weather history database for the weather conditions in past years. The results will help you decide how hot, cold, wet, or windy it might be!

Date:

Astronomy

Dec. 25, 2013 Rise Set
Actual Time 7:06 AM CST 4:44 PM CST
Civil Twilight 6:37 AM CST 5:13 PM CST
Nautical Twilight 6:05 AM CST 5:45 PM CST
Astronomical Twilight 5:33 AM CST 6:17 PM CST
Moon No Moon Rise 11:40 AM CST (12/25)
Length of Visible Light 10h 35m
Length of Day
9h 37m
Waning Gibbous, 48% of the Moon is Illuminated
Dec 25
Waning Gibbous
Jan 1
New
Jan 7
First Quarter
Jan 15
Full
Jan 23
Last Quarter

Hourly Weather History & Observations

Time (CST) Temp. Windchill Dew Point Humidity Pressure Visibility Wind Dir Wind Speed Gust Speed Precip Events Conditions
12:53 AM 21.9 °F 14.5 °F 12.9 °F 68% 30.43 in 10.0 mi SE 5.8 mph - N/A   Clear
1:53 AM 23.0 °F 17.0 °F 14.0 °F 68% 30.42 in 10.0 mi SE 4.6 mph - N/A   Clear
2:53 AM 21.9 °F - 12.9 °F 68% 30.42 in 10.0 mi Calm Calm - N/A   Clear
3:53 AM 21.0 °F - 14.0 °F 74% 30.43 in 10.0 mi Calm Calm - N/A   Clear
4:53 AM 19.0 °F 13.9 °F 15.1 °F 85% 30.43 in 10.0 mi SE 3.5 mph - N/A   Clear
5:53 AM 19.9 °F 14.9 °F 14.0 °F 78% 30.42 in 10.0 mi SE 3.5 mph - N/A   Clear
6:53 AM 21.9 °F 15.7 °F 14.0 °F 72% 30.42 in 10.0 mi SSE 4.6 mph - N/A   Scattered Clouds
7:53 AM 26.1 °F 18.4 °F 16.0 °F 66% 30.41 in 10.0 mi South 6.9 mph - N/A   Overcast
8:53 AM 30.0 °F 22.4 °F 17.1 °F 59% 30.40 in 10.0 mi South 8.1 mph - N/A   Partly Cloudy
9:53 AM 33.1 °F 26.1 °F 18.0 °F 54% 30.40 in 10.0 mi SW 8.1 mph - N/A   Clear
10:53 AM 37.0 °F 30.4 °F 19.9 °F 50% 30.39 in 10.0 mi SW 9.2 mph - N/A   Clear
11:53 AM 39.9 °F 33.9 °F 23.0 °F 51% 30.35 in 10.0 mi SW 9.2 mph - N/A   Clear
12:53 PM 41.0 °F 35.2 °F 21.9 °F 47% 30.32 in 10.0 mi WSW 9.2 mph - N/A   Clear
1:53 PM 44.1 °F 37.7 °F 23.0 °F 43% 30.30 in 10.0 mi SW 12.7 mph - N/A   Clear
2:53 PM 43.0 °F 36.8 °F 25.0 °F 49% 30.29 in 10.0 mi SW 11.5 mph - N/A   Clear
3:53 PM 41.0 °F 36.4 °F 26.1 °F 55% 30.30 in 10.0 mi WSW 6.9 mph - N/A   Overcast
4:53 PM 37.9 °F 33.5 °F 26.1 °F 62% 30.30 in 10.0 mi West 5.8 mph - N/A   Mostly Cloudy
5:53 PM 37.0 °F 32.4 °F 27.0 °F 67% 30.31 in 10.0 mi WSW 5.8 mph - N/A   Overcast
6:53 PM 34.0 °F 28.8 °F 26.1 °F 73% 30.31 in 10.0 mi WSW 5.8 mph - N/A   Scattered Clouds
7:53 PM 33.1 °F 28.7 °F 26.1 °F 75% 30.31 in 10.0 mi WSW 4.6 mph - N/A   Clear
8:53 PM 33.1 °F 27.7 °F 26.1 °F 75% 30.31 in 10.0 mi SW 5.8 mph - N/A   Clear
9:53 PM 30.9 °F 24.3 °F 26.1 °F 82% 30.32 in 10.0 mi WSW 6.9 mph - N/A   Clear
10:53 PM 32.0 °F 24.8 °F 27.0 °F 82% 30.32 in 10.0 mi WSW 8.1 mph - N/A   Clear
11:53 PM 34.0 °F 28.0 °F 28.9 °F 82% 30.33 in 10.0 mi WNW 6.9 mph - N/A   Clear